www.pogodaiklimat.ru

Погода и климат >> Архив погоды >> Австралия >> Южная Австралия >> Аэродром Вумера


ПОГОДА на Аэродроме Вумера

  • Прогноз погоды на Аэродроме Вумера
  • Монитор погоды на Аэродроме Вумера

АРХИВ ПОГОДЫ на Аэродроме Вумера

Время (UTC), дата Ветер
(напр.,м/с)
 
Видим.   Явления Облачность Т
(С)
Тd
(С)
f
(%)
Тe
(С)
Тes
(С)
Комфортность P
(гПа)
Po
(гПа)
Тmin
(С)
Tmax
(С)
R
(мм)
R24
(мм)
S
(см)
04 17.02 СВ 2 н/о н/о +37.7 -0.6 9 +34 +34 очень
жарко
1008.5 989.4
05 17.02 ЮЗ 4 н/о н/о +38.2 -1.8 8 +34 +34 очень
жарко
1007.3 988.3
06 17.02 ЮВ 3 н/о н/о +38.8 -1.3 8 +35 +35 очень
жарко
1006.5 987.5
07 17.02 СЗ 3 н/о н/о +38.5 -1.6 8 +35 +35 очень
жарко
1006.0 987.0
08 17.02 ЮЗ 4 н/о н/о +38.8 -1.3 8 +35 +35 очень
жарко
1005.9 986.9
09 17.02 ЮЗ 5 н/о н/о +37.5 -0.7 9 +34 +34 очень
жарко
1006.1 987.1
10 17.02 Ю 4 н/о н/о +34.9 -1.2 10 +31 +31 жарко 1006.6 987.6
11 17.02 Ю 3 н/о н/о +32.5 -0.5 12 +29 +29 жарко 1006.9 987.9
12 17.02 ЮВ 3 н/о н/о +31.5 -0.2 13 +28 +28 жарко 1006.9 987.9
13 17.02 В 3 н/о н/о +30.4 -1.1 13 +27 +27 жарко 1006.6 987.6 +39.8
14 17.02 В 4 н/о н/о +29.5 -0.8 14 +27 +27 жарко 1006.3 987.3
15 17.02 С 5 н/о н/о +28.4 -0.7 15 +26 +26 жарко 1005.9 986.9
16 17.02 С 5 н/о н/о +28.9 -2.3 13 +26 +26 жарко 1005.3 986.3
17 17.02 С 5 н/о н/о +27.9 -2.0 14 +25 +25 комфорт 1004.9 985.9
18 17.02 З 4 н/о н/о +25.5 -1.3 17 +24 +24 комфорт 1005.6 986.6
19 17.02 З 4 н/о н/о +24.2 +0.5 21 +23 +23 комфорт 1005.8 986.8
20 17.02 ЮЗ 5 н/о н/о +24.2 +1.8 23 +23 +23 комфорт 1006.3 987.3
21 17.02 ЮЗ 7 н/о н/о +23.2 +5.6 32 +24 +24 комфорт 1007.2 988.2
22 17.02 Ю 9 н/о н/о +23.3 +11.4 47 +26 +26 жарко 1008.3 989.2
23 17.02 Ю 11 н/о н/о +24.4 +12.7 48 +26 +26 жарко 1008.4 989.3
00 18.02 Ю 10 н/о н/о +25.3 +13.8 49 +28 +28 жарко 1009.0 989.9
01 18.02 Ю 9 н/о н/о +26.9 +14.3 46 +29 +29 жарко 1009.3 990.2 +23.2
02 18.02 Ю 9 н/о н/о +28.5 +12.0 36 +30 +30 жарко 1009.3 990.2
03 18.02 Ю 10 н/о н/о +30.1 +11.6 32 +31 +31 жарко 1009.0 989.9
04 18.02 Ю 9 н/о н/о +30.2 +11.2 31 +31 +31 жарко 1008.7 989.6
05 18.02 Ю 9 н/о н/о +31.4 +10.2 27 +31 +31 жарко 1008.4 989.3
06 18.02 Ю 9 н/о н/о +31.5 +9.7 26 +31 +31 жарко 1008.1 989.1
07 18.02 Ю 9 н/о н/о +31.6 +9.2 25 +31 +31 жарко 1008.0 989.0
08 18.02 Ю 8 н/о н/о +31.0 +9.3 26 +30 +30 жарко 1008.3 989.2
09 18.02 Ю 8 н/о н/о +30.3 +8.7 26 +30 +30 жарко 1009.0 989.9
10 18.02 Ю 6 н/о н/о +28.7 +6.1 24 +28 +28 жарко 1009.7 990.6
11 18.02 ЮВ 9 н/о н/о +25.5 +8.5 34 +26 +26 жарко 1010.8 991.7
12 18.02 ЮВ 10 н/о н/о +23.9 +7.9 36 +24 +24 комфорт 1011.7 992.6
13 18.02 Ю 7 н/о н/о +22.0 +8.9 43 +23 +23 комфорт 1012.6 993.5 +33.2
14 18.02 Ю 7 н/о н/о +20.7 +9.9 50 +22 +22 комфорт 1012.9 993.8
15 18.02 Ю 7 н/о н/о +19.7 +9.9 53 +20 +20 1013.0 993.9
16 18.02 Ю 7 н/о н/о +18.3 +11.6 65 +18 +18 1012.7 993.6
17 18.02 Ю 7 н/о н/о +17.6 +11.6 68 +17 +17 1012.7 993.6
18 18.02 Ю 7 н/о н/о +16.8 +11.5 71 +16 +16 1012.5 993.4
19 18.02 Ю 6 н/о н/о +16.2 +11.4 73 +15 +15 1012.7 993.6
20 18.02 Ю 6 н/о н/о +15.8 +11.4 75 +14 +14 1013.0 993.9
21 18.02 Ю 7 н/о н/о +15.8 +11.4 75 +14 +14 1013.3 994.2
22 18.02 Ю 6 н/о н/о +17.6 +11.2 66 +17 +17 1014.3 995.1
23 18.02 ЮВ 10 н/о н/о +19.4 +10.1 55 +20 +20 1014.7 995.5
00 19.02 ЮВ 8 н/о н/о +21.3 +9.2 46 +23 +23 комфорт 1015.0 995.8
01 19.02 ЮВ 7 н/о н/о +23.3 +6.6 34 +24 +24 комфорт 1014.9 995.7 +15.7
02 19.02 Ю 6 н/о н/о +24.3 +7.0 33 +24 +24 комфорт 1014.7 995.5
03 19.02 ЮВ 6 н/о н/о +26.3 +5.8 27 +26 +26 жарко 1014.0 994.8
04 19.02 ЮЗ 5 н/о н/о +28.0 +5.0 23 +27 +27 жарко 1013.3 994.2
05 19.02 Ю 5 н/о н/о +28.2 +3.1 20 +26 +26 жарко 1012.8 993.7
06 19.02 Ю 6 н/о н/о +29.1 +0.7 16 +27 +27 жарко 1012.7 993.6
07 19.02 Ю 7 н/о н/о +28.8 +1.3 17 +27 +27 жарко 1012.6 993.5
08 19.02 ЮЗ 7 н/о н/о +28.4 +4.0 21 +27 +27 жарко 1012.6 993.5
09 19.02 Ю 6 н/о н/о +27.9 +4.2 22 +26 +26 жарко 1012.9 993.8
10 19.02 Ю 5 н/о н/о +26.8 +4.6 24 +26 +26 жарко 1013.1 994.0
11 19.02 Ю 4 н/о н/о +24.7 +4.5 27 +24 +24 комфорт 1013.7 994.5
12 19.02 ЮВ 6 н/о н/о +24.3 +7.0 33 +24 +24 комфорт 1014.5 995.3
13 19.02 ЮВ 8 н/о н/о +22.4 +7.8 39 +23 +23 комфорт 1014.7 995.5 +30.3
14 19.02 ЮВ 7 н/о н/о +20.8 +6.7 40 +22 +22 комфорт 1014.8 995.6
15 19.02 Ю 6 н/о н/о +19.9 +8.9 49 +21 +21 комфорт 1015.1 995.9
16 19.02 Ю 5 н/о н/о +18.9 +11.0 60 +19 +19 1014.9 995.7
17 19.02 Ю 5 н/о н/о +18.1 +11.0 63 +18 +18 1015.1 995.9
18 19.02 Ю 6 н/о н/о +17.5 +11.3 67 +17 +17 1015.2 996.0
19 19.02 Ю 7 н/о н/о +17.1 +11.6 70 +16 +16 1015.5 996.3
20 19.02 Ю 5 н/о н/о +16.5 +11.2 71 +16 +16 1016.1 996.9
21 19.02 Ю 3 н/о н/о +16.2 +10.7 70 +16 +16 1016.9 997.7
22 19.02 ЮВ 6 н/о н/о +18.0 +11.1 64 +18 +18 1017.5 998.3
23 19.02 ЮВ 8 н/о н/о +19.8 +10.5 55 +21 +21 комфорт 1017.4 998.2
00 20.02 Ю 6 н/о н/о +22.8 +9.9 44 +25 +25 комфорт 1017.6 998.4
01 20.02 Ю 5 н/о н/о +24.2 +8.2 36 +25 +25 комфорт 1017.4 998.2 +16.1
02 20.02 Ю 5 н/о н/о +25.5 +6.2 29 +25 +25 комфорт 1016.8 997.6
03 20.02 ЮЗ 5 н/о н/о +27.6 +4.6 23 +26 +26 жарко 1016.3 997.1
04 20.02 ЮЗ 7 н/о н/о +28.7 +4.2 21 +27 +27 жарко 1015.7 996.5
05 20.02 ЮЗ 6 н/о н/о +28.6 +3.5 20 +27 +27 жарко 1014.9 995.7
06 20.02 Ю 5 н/о н/о +29.2 +6.6 24 +28 +28 жарко 1014.3 995.1
07 20.02 ЮЗ 5 н/о н/о +29.9 +6.5 23 +29 +29 жарко 1014.3 995.1
08 20.02 ЮЗ 6 н/о н/о +29.6 +5.6 22 +28 +28 жарко 1014.3 995.1
09 20.02 Ю 7 н/о н/о +28.5 +5.4 23 +27 +27 жарко 1014.1 994.9
10 20.02 Ю 6 н/о н/о +27.3 +5.6 25 +26 +26 жарко 1014.6 995.4
11 20.02 ЮВ 7 н/о н/о +25.9 +7.0 30 +26 +26 жарко 1015.3 996.1
12 20.02 ЮВ 7 н/о н/о +24.6 +6.4 31 +25 +25 комфорт 1015.9 996.7
13 20.02 ЮВ 9 н/о н/о +22.2 +10.4 47 +24 +24 комфорт 1016.2 997.0 +30.2
14 20.02 Ю 6 н/о н/о +20.9 +11.0 53 +23 +23 комфорт 1016.4 997.2
15 20.02 ЮВ 7 н/о н/о +20.0 +11.2 57 +21 +21 комфорт 1016.8 997.6
16 20.02 ЮВ 8 н/о н/о +19.0 +12.5 66 +19 +19 1016.4 997.2
17 20.02 Ю 6 н/о н/о +18.4 +12.8 70 +18 +18 1016.1 996.9
18 20.02 Ю 6 н/о н/о +17.9 +13.2 74 +17 +17 1016.1 996.9
19 20.02 ЮВ 6 н/о н/о +17.5 +12.8 74 +17 +17 1016.1 996.9
20 20.02 ЮВ 6 н/о н/о +17.1 +12.8 76 +16 +16 1016.4 997.2
21 20.02 ЮВ 6 н/о н/о +17.1 +12.4 74 +16 +16 1017.3 998.1
22 20.02 ЮВ 7 н/о н/о +18.9 +12.4 66 +19 +19 1018.0 998.8
23 20.02 ЮВ 6 н/о н/о +21.5 +11.8 54 +24 +24 комфорт 1018.7 999.5
00 21.02 ЮВ 6 н/о н/о +23.9 +10.6 43 +25 +25 комфорт 1019.0 999.7
01 21.02 В 4 н/о н/о +25.7 +9.5 36 +26 +26 жарко 1018.7 999.5 +16.8
02 21.02 В 3 н/о н/о +27.5 +8.4 30 +27 +27 жарко 1018.2 999.0
03 21.02 В 3 н/о н/о +28.5 +6.6 25 +28 +28 жарко 1017.4 998.2
04 21.02 СВ 3 н/о н/о +30.0 +7.2 24 +29 +29 жарко 1016.6 997.4
05 21.02 Ю 5 н/о н/о +31.7 +6.7 21 +30 +30 жарко 1015.8 996.6
06 21.02 Ю 6 н/о н/о +30.5 +4.3 19 +28 +28 жарко 1015.4 996.2
07 21.02 ЮЗ 4 н/о н/о +31.3 +0.6 14 +28 +28 жарко 1015.2 996.0
08 21.02 Ю 4 н/о н/о +31.4 +4.2 18 +29 +29 жарко 1015.1 995.9
09 21.02 Ю 4 н/о н/о +30.9 +4.6 19 +29 +29 жарко 1015.0 995.8
10 21.02 ЮЗ 4 н/о н/о +29.0 +3.8 20 +27 +27 жарко 1015.4 996.2
11 21.02 Ю 4 н/о н/о +27.5 +3.9 22 +26 +26 жарко 1015.9 996.7
12 21.02 ЮВ 5 н/о н/о +26.7 +3.2 22 +25 +25 комфорт 1016.5 997.3
13 21.02 ЮВ 7 н/о н/о +25.8 +3.7 24 +25 +25 комфорт 1016.8 997.6 +32.4
14 21.02 ЮВ 8 н/о н/о +23.8 +9.0 39 +25 +25 комфорт 1016.9 997.7
15 21.02 ЮВ 7 н/о н/о +22.6 +10.4 46 +24 +24 комфорт 1017.0 997.8
16 21.02 ЮВ 5 н/о н/о +21.3 +11.6 54 +23 +23 комфорт 1016.7 997.5
17 21.02 ЮВ 7 н/о н/о +20.5 +12.5 60 +22 +22 комфорт 1016.4 997.2
18 21.02 ЮВ 6 н/о н/о +19.8 +12.3 62 +21 +21 комфорт 1016.4 997.2
19 21.02 ЮВ 5 н/о н/о +19.0 +11.8 63 +20 +20 1016.7 997.5
20 21.02 В 4 н/о н/о +18.0 +11.3 65 +18 +18 1017.2 998.0
21 21.02 ЮВ 4 н/о н/о +18.7 +11.0 61 +19 +19 1017.9 998.7
22 21.02 ЮВ 5 н/о н/о +21.6 +10.1 48 +23 +23 комфорт 1018.4 999.2
23 21.02 ЮВ 7 н/о н/о +24.6 +7.7 34 +25 +25 комфорт 1018.6 999.4
00 22.02 В 7 н/о н/о +27.3 +6.1 26 +27 +27 жарко 1019.0 999.7
01 22.02 В 6 н/о н/о +29.0 +5.1 22 +28 +28 жарко 1019.0 999.7 +17.8
02 22.02 В 6 н/о н/о +31.0 +3.1 17 +29 +29 жарко 1018.5 999.3
03 22.02 ЮВ 6 н/о н/о +32.0 +3.1 16 +29 +29 жарко 1017.8 998.6
04 22.02 Ю 4 н/о н/о +32.5 -0.5 12 +29 +29 жарко 1016.8 997.6
05 22.02 Ю 6 н/о н/о +32.9 -0.2 12 +30 +30 жарко 1016.2 997.0
06 22.02 ЮВ 6 н/о н/о +34.7 -1.4 10 +31 +31 жарко 1015.3 996.1
07 22.02 ЮВ 6 н/о н/о +34.0 -1.9 10 +30 +30 жарко 1015.0 995.8
08 22.02 Ю 7 н/о н/о +33.9 -3.4 9 +30 +30 жарко 1014.8 995.6
09 22.02 ЮВ 6 н/о н/о +33.2 -2.5 10 +29 +29 жарко 1014.9 995.7
10 22.02 ЮВ 5 н/о н/о +31.8 -2.3 11 +28 +28 жарко 1015.4 996.2
11 22.02 ЮВ 4 н/о н/о +29.1 -2.1 13 +26 +26 жарко 1016.1 996.9
12 22.02 ЮВ 5 н/о н/о +28.2 -0.9 15 +26 +26 жарко 1016.7 997.5
13 22.02 ЮВ 6 н/о н/о +27.5 +5.7 25 +27 +27 жарко 1016.7 997.5 +35.3
14 22.02 ЮВ 6 н/о н/о +26.3 +6.9 29 +26 +26 жарко 1016.7 997.5
15 22.02 ЮВ 5 н/о н/о +24.8 +8.3 35 +25 +25 комфорт 1016.6 997.4
16 22.02 ЮВ 4 н/о н/о +23.8 +8.2 37 +24 +24 комфорт 1016.5 997.3
17 22.02 ЮВ 4 н/о н/о +22.9 +7.8 38 +24 +24 комфорт 1016.5 997.3
18 22.02 ЮВ 5 н/о н/о +22.7 +7.3 37 +24 +24 комфорт 1016.6 997.4
19 22.02 В 6 н/о н/о +23.3 +5.7 32 +24 +24 комфорт 1016.7 997.5
20 22.02 ЮВ 4 н/о н/о +22.0 +5.8 35 +23 +23 комфорт 1017.1 997.9
21 22.02 ЮВ 6 н/о н/о +22.7 +4.2 30 +23 +23 комфорт 1017.5 998.3
22 22.02 ЮВ 7 н/о н/о +23.6 +5.0 30 +23 +23 комфорт 1018.1 998.9
23 22.02 В 7 н/о н/о +27.3 +3.7 22 +26 +26 жарко 1018.4 999.2
00 23.02 В 8 н/о н/о +30.3 +1.7 16 +28 +28 жарко 1018.6 999.4
01 23.02 В 7 н/о н/о +32.1 +0.2 13 +29 +29 жарко 1018.2 999.0 +21.2
02 23.02 В 5 н/о н/о +33.6 -0.9 11 +30 +30 жарко 1017.6 998.4
03 23.02 ЮВ 5 н/о н/о +34.5 -1.5 10 +31 +31 жарко 1017.0 997.8
04 23.02 В 4 н/о н/о +34.9 -2.6 9 +31 +31 жарко 1016.3 997.1
05 23.02 Ю 4 н/о н/о +35.8 -2.0 9 +32 +32 жарко 1015.7 996.5
06 23.02 В 5 н/о н/о +36.4 -1.5 9 +33 +33 жарко 1015.1 995.9
07 23.02 Ю 4 н/о н/о +36.1 -1.7 9 +32 +32 жарко 1014.8 995.6
08 23.02 ЮВ 8 н/о н/о +36.1 -0.3 10 +32 +32 жарко 1014.7 995.5
09 23.02 В 7 н/о н/о +35.1 -1.1 10 +31 +31 жарко 1014.8 995.6
10 23.02 ЮВ 4 н/о н/о +32.7 -1.6 11 +29 +29 жарко 1015.4 996.2
11 23.02 ЮВ 3 н/о н/о +31.0 -1.7 12 +28 +28 жарко 1015.8 996.6
12 23.02 ЮВ 3 н/о н/о +30.1 -2.4 12 +27 +27 жарко 1016.0 996.8
13 23.02 ЮВ 6 н/о н/о +29.6 +1.1 16 +27 +27 жарко 1016.1 996.9 +37.1
14 23.02 ЮВ 5 н/о н/о +28.3 +2.5 19 +26 +26 жарко 1016.0 996.8
15 23.02 ЮВ 4 н/о н/о +27.3 +4.4 23 +26 +26 жарко 1016.0 996.8
16 23.02 ЮВ 5 н/о н/о +26.6 +3.8 23 +25 +25 комфорт 1015.8 996.6
17 23.02 В 6 н/о н/о +26.7 +2.6 21 +25 +25 комфорт 1015.7 996.5
18 23.02 В 5 н/о н/о +25.4 +1.5 21 +24 +24 комфорт 1016.2 997.0
19 23.02 В 5 н/о н/о +24.7 +0.9 21 +23 +23 комфорт 1016.6 997.4
21 23.02 В 5 н/о н/о +24.1 +0.4 21 +23 +23 комфорт 1017.7 998.5
22 23.02 В 5 н/о н/о +27.7 -0.4 16 +25 +25 комфорт 1018.1 998.9
23 23.02 В 8 н/о н/о +30.6 -0.9 13 +27 +27 жарко 1018.3 999.1
00 24.02 СВ 7 н/о н/о +33.6 +2.4 14 +31 +31 жарко 1018.3 999.1
01 24.02 СВ 7 н/о н/о +35.4 +3.9 14 +32 +32 жарко 1018.1 998.9 +23.1
02 24.02 С 7 н/о н/о +35.1 +3.6 14 +32 +32 жарко 1017.4 998.2
03 24.02 СВ 5 н/о н/о +36.1 +3.3 13 +33 +33 жарко 1016.9 997.7
04 24.02 В 4 н/о н/о +36.7 +2.7 12 +33 +33 жарко 1016.5 997.3

 

Местоположение метеостанции Аэродром Вумера (Южная Австралия, Австралия): широта -31.15 долгота 136.81 высота над уровнем моря 167 м.

В архиве по умолчанию представлена погода на Аэродроме Вумера за последнюю неделю. Архивные данные за месяц целиком и за предыдущие месяцы, начиная с января 2011 года, Вы можете получить, выбрав интересующий диапазон дат из раскрывающегося списка и нажав кнопку "Ввод!".


*Определитесь, кто Вы:
робот инопланетянин человек

Внимание! Время в таблицах - всемирное. Для получения местного времени необходимо прибавить поправку, которая равна 9.5 ч.

Смотрите также архив погоды в соседних городах и на ближайших метеорологических станциях:

Погода в Олимпик Дэм (Южная Австралия, Австралия) (75 км)
Погода в Ли-Крике (Южная Австралия, Австралия) (165 км)
Погода в Порт Огаста (Южная Австралия, Австралия) (175 км)
Погода в Марри (Южная Австралия, Австралия) (205 км)
Погода в Таркуле (Южная Австралия, Австралия) (218 км)
Погода в Уиолле (Южная Австралия, Австралия) (224 км)
Погода в Миннипа Пирса (Южная Австралия, Австралия) (245 км)
Погода в Уудинне (Южная Австралия, Австралия) (247 км)
Погода в Кливе (Южная Австралия, Австралия) (287 км)
Погода в Юнте (Южная Австралия, Австралия) (305 км)

Пояснения к столбцам:

Ветер - указаны скорость ветра в м/с - средняя за 10 мин, порывы в срок и между сроками (в фигурных скобках) и направление, откуда дует ветер: С - северный, СВ - северо-восточный, В - восточный, ЮВ - юго-восточный, Ю - южный, ЮЗ - юго-западный, З - западный, СЗ - северо-западный.
Видимость - горизонтальная дальность видимости в метрах или километрах. При видимости от 1 до 10 км при отсутствии осадков обычно наблюдается дымка, при ухудшении видимости до 1 км и менее - туман. В сухую погоду видимость может ухудшаться дымом, пылью или мглою.
Явления - указаны атмосферные явления, наблюдавшиеся в срок или в последний час перед сроком; фигурными скобками обозначены явления, наблюдавшиеся между сроками (за 1-3 часа до срока); квадратными скобками обозначены град или гололедные отложения с указанием их диаметра в мм.
Облачность - указаны через наклонную черту общая и нижняя облачность в баллах и высота нижней границы облаков в метрах; квадратными скобками обозначены формы облаков: Ci - перистые, Cs - перисто-слоистые, Cc - перисто-кучевые, Ac - высококучевые, As - высокослоистые, Sc - слоисто-кучевые, Ns - слоисто-дождевые, Cu - кучевые, Cb - кучево-дождевые. Подробнее классификацию облаков см. в Атласе облаков (PDF).
T - Температура воздуха - температура, измеренная на высоте 2 м над землей.
Td - Температура точки росы - температура, при понижении до которой содержащийся в воздухе водяной пар достигнет насыщения.
f - Относительная влажность воздуха - влажноcть воздуха, измеренная на высоте 2 м над землей.
Te - Эффективная температура - температура, которую ощущает одетый по сезону человек в тени. Характеристика душности погоды. При расчете учитывается влияние влажности воздуха и скорости ветра на теплоощущения человека.
Tes - Эффективная температура на солнце - температура, которую ощущает человек, с поправкой на солнечный нагрев. Характеристика знойности погоды. Зависит от высоты солнца над горизонтом, облачности и скорости ветра. Ночью, в пасмурную погоду, а также при ветре 12 м/с и более поправка равна нулю.
P - Атмосферное давление - приведенное к уровню моря атмосферное давление.
Po - Атмосферное давление - измеренное на уровне метеостанции атмосферное давление.
Tmin - Минимальная температура - минимум температуры воздуха на высоте 2 м над землей.
Tmax - Максимальная температура - максимум температуры воздуха на высоте 2 м над землей.
R - Количество осадков - Количество выпавших осадков за период времени, мм. При наведении курсора мыши на число - период времени, за который выпало указанное количество осадков.
R24 - Количество осадков - Количество выпавших осадков за 24 часа, мм.
S - Снежный покров - Высота снежного покрова, см. При наведении курсора мыши на число - состояние снежного покрова и степень покрытия местности в баллах.